Visibility
15.0 15.0 15.0 15.0 15.0 15.0 15.0 15.0 12.6 15.0 15.0 15.0 15.0 15.0 15.0 15.0 15.0 15.0 15.0 15.0 15.0 15.0 15.0 15.0 15.0 15.0 15.0 15.0 15.0 15.0 15.0 15.0 15.0 15.0 15.0 15.0 15.0 15.0 15.0 15.0 15.0 15.0 15.0 15.0
15.0 15.0 15.0 15.0 15.0 15.0 15.0 15.0 15.0 14.9 15.0 15.0 15.0 15.0 15.0 15.0 15.0 15.0 15.0 15.0 15.0 15.0 15.0 15.0 15.0 15.0 15.0 15.0 15.0 15.0 15.0 15.0 14.9 15.0 15.0 15.0 15.0 15.0 15.0 15.0 15.0 15.0 15.0 15.0
15.0 15.0 15.0 2.9 15.0 15.0 15.0 15.0 15.0 15.0 15.0 15.0 15.0 15.0 15.0 15.0 15.0 15.0 15.0 15.0 15.0 15.0 15.0 15.0 15.0 15.0 15.0 15.0 15.0 15.0 15.0 15.0 15.0 14.5 15.0 15.0 15.0 15.0 15.0 15.0 15.0 15.0 15.0 15.0
10.9 15.0 2.9 15.0 15.0 15.0 15.0 15.0 15.0 15.0 15.0 15.0 15.0 15.0 15.0 15.0 15.0 15.0 15.0 15.0 15.0 15.0 9.3 15.0 15.0 15.0 15.0 7.4 3.8 0.1 0.0 0.0 3.0 11.9 7.5 7.1 1.1 1.8 14.3 15.0 15.0 15.0 15.0 15.0
14.0 15.0 15.0 15.0 15.0 15.0 15.0 15.0 15.0 15.0 15.0 15.0 15.0 15.0 15.0 15.0 15.0 15.0 15.0 15.0 15.0 15.0 6.5 2.6 4.9 2.0 0.0 0.0 0.0 0.0 0.1 0.1 0.1 0.1 0.1 0.2 2.8 4.3 15.0 11.1 10.6 15.0 15.0 15.0
12.8 5.3 15.0 15.0 15.0 15.0 15.0 15.0 15.0 15.0 15.0 15.0 15.0 15.0 15.0 15.0 15.0 15.0 15.0 15.0 15.0 15.0 5.0 4.4 3.7 1.5 0.0 0.0 0.0 0.1 0.1 0.1 0.1 0.1 0.1 0.7 15.0 15.0 15.0 15.0 13.8 12.2 11.5 15.0
0.9 0.6 9.6 15.0 15.0 15.0 10.2 15.0 15.0 15.0 15.0 15.0 15.0 15.0 15.0 14.7 0.1 1.7 15.0 15.0 15.0 15.0 0.1 0.1 6.3 1.7 0.0 0.0 0.1 0.1 0.1 0.1 0.1 0.1 0.2 6.7 10.3 15.0 15.0 15.0 13.1 12.4 12.5 9.6
15.0 2.1 1.1 15.0 15.0 7.4 15.0 15.0 15.0 15.0 15.0 15.0 15.0 15.0 10.6 1.9 0.1 0.0 0.0 15.0 15.0 6.5 0.2 15.0 15.0 4.7 0.0 0.0 0.0 0.1 0.1 0.1 0.2 0.1 0.3 6.0 15.0 15.0 15.0 15.0 15.0 13.3 11.5 7.6
15.0 15.0 13.7 14.8 15.0 15.0 15.0 15.0 15.0 15.0 15.0 15.0 15.0 0.0 0.4 0.1 0.0 0.0 0.0 15.0 15.0 15.0 15.0 15.0 15.0 15.0 0.1 0.0 0.1 0.1 0.1 0.1 0.1 0.1 8.8 15.0 15.0 15.0 15.0 15.0 15.0 12.5 14.6 7.7
2.9 15.0 15.0 15.0 15.0 15.0 15.0 15.0 15.0 15.0 15.0 12.6 0.0 0.3 0.3 0.0 0.0 0.0 0.1 15.0 15.0 15.0 15.0 15.0 15.0 15.0 15.0 0.2 0.1 0.1 0.1 0.1 0.1 0.5 8.9 15.0 15.0 15.0 15.0 15.0 15.0 15.0 15.0 11.7
15.0 15.0 15.0 15.0 15.0 15.0 15.0 15.0 15.0 15.0 15.0 15.0 12.9 5.0 15.0 6.7 8.1 10.0 1.4 15.0 15.0 15.0 15.0 15.0 15.0 11.7 13.8 0.2 0.1 0.1 0.1 0.2 0.2 4.2 9.2 15.0 15.0 15.0 15.0 15.0 15.0 15.0 15.0 15.0
15.0 15.0 15.0 15.0 15.0 15.0 15.0 15.0 15.0 15.0 15.0 15.0 15.0 15.0 15.0 15.0 15.0 15.0 15.0 15.0 15.0 15.0 15.0 15.0 4.2 0.6 0.4 0.4 5.2 0.2 0.2 0.3 0.3 13.9 15.0 15.0 15.0 15.0 15.0 15.0 15.0 15.0 15.0 15.0
15.0 15.0 15.0 15.0 15.0 15.0 15.0 15.0 15.0 15.0 15.0 15.0 15.0 15.0 15.0 15.0 15.0 15.0 15.0 15.0 15.0 15.0 15.0 15.0 4.1 0.6 0.4 2.0 9.2 4.6 0.6 0.9 5.9 15.0 15.0 15.0 15.0 15.0 15.0 15.0 15.0 15.0 15.0 15.0
15.0 15.0 10.0 15.0 15.0 15.0 15.0 15.0 15.0 15.0 15.0 15.0 15.0 15.0 15.0 15.0 15.0 15.0 15.0 15.0 15.0 15.0 14.9 3.0 2.7 0.8 0.1 0.1 0.0 0.1 0.1 0.3 1.6 15.0 15.0 15.0 15.0 15.0 14.3 15.0 15.0 13.1 15.0 15.0
15.0 9.5 9.7 15.0 15.0 15.0 15.0 15.0 15.0 15.0 15.0 15.0 15.0 15.0 15.0 15.0 15.0 15.0 15.0 15.0 15.0 15.0 7.2 1.1 0.7 0.3 0.1 0.1 0.1 0.1 0.1 0.1 0.2 2.6 7.4 12.1 10.0 8.1 8.4 9.3 10.3 10.9 9.7 3.4
15.0 15.0 15.0 15.0 15.0 15.0 15.0 15.0 15.0 15.0 15.0 15.0 15.0 15.0 3.6 3.6 3.8 12.2 11.1 4.0 0.5 0.8 3.0 1.8 1.3 0.4 0.1 0.1 0.1 0.1 0.2 0.3 0.8 7.1 6.0 9.1 11.3 10.2 8.5 9.6 14.2 9.7 11.0 4.4
15.0 15.0 15.0 15.0 15.0 15.0 15.0 15.0 15.0 15.0 15.0 15.0 15.0 15.0 15.0 15.0 15.0 14.9 14.5 1.0 0.1 0.1 0.1 0.4 0.4 0.3 0.2 0.1 2.4 9.8 10.0 0.6 0.8 1.5 14.8 8.5 8.4 8.7 9.7 15.0 15.0 15.0 15.0 4.9
15.0 15.0 15.0 15.0 15.0 15.0 15.0 15.0 15.0 15.0 15.0 15.0 10.6 6.3 15.0 15.0 13.9 1.8 1.0 1.2 0.7 0.4 0.6 0.7 2.1 0.9 0.4 0.4 5.3 4.6 1.5 1.7 0.9 2.4 14.8 9.1 11.8 15.0 15.0 15.0 15.0 15.0 14.5 5.1
15.0 15.0 15.0 15.0 15.0 15.0 15.0 15.0 15.0 6.9 14.2 0.2 0.3 15.0 15.0 15.0 10.3 3.6 1.0 0.4 0.3 0.5 0.4 0.7 1.0 1.2 1.3 0.8 15.0 15.0 14.7 0.7 0.6 0.9 1.6 11.4 15.0 15.0 15.0 15.0 15.0 15.0 15.0 14.9
15.0 15.0 15.0 15.0 15.0 15.0 15.0 1.2 3.4 2.0 0.1 0.1 13.0 12.6 9.5 7.1 10.6 10.3 12.3 2.2 0.6 1.5 4.6 2.4 3.6 11.7 13.8 4.7 9.6 15.0 15.0 11.6 13.1 15.0 15.0 15.0 15.0 15.0 15.0 15.0 15.0 14.6 10.3 10.9
15.0 15.0 15.0 15.0 15.0 15.0 15.0 5.0 15.0 0.4 11.7 15.0 15.0 15.0 15.0 6.1 12.2 15.0 9.9 14.7 1.7 12.7 15.0 15.0 15.0 15.0 15.0 15.0 15.0 11.1 12.7 9.7 10.1 11.3 14.6 12.9 12.4 14.1 9.3 9.1 9.5 8.2 3.2 4.7
15.0 15.0 15.0 9.7 0.9 0.4 12.7 1.6 9.1 15.0 15.0 15.0 15.0 15.0 11.2 4.4 7.3 9.8 10.2 14.7 15.0 15.0 15.0 15.0 15.0 15.0 15.0 15.0 15.0 4.7 12.1 7.1 10.3 12.8 9.9 8.8 8.7 9.8 9.2 5.1 3.6 3.1 2.7 2.1
14.8 2.4 1.7 0.3 0.6 0.3 11.2 15.0 15.0 15.0 15.0 15.0 15.0 15.0 15.0 15.0 15.0 15.0 15.0 15.0 15.0 15.0 15.0 15.0 15.0 14.0 1.5 0.4 0.6 0.5 1.0 0.6 0.8 10.6 8.5 8.2 8.7 7.0 7.4 6.5 6.1 6.7 4.7 6.3
15.0 1.9 5.1 9.6 15.0 15.0 14.1 7.6 15.0 7.8 15.0 15.0 15.0 15.0 15.0 15.0 14.9 15.0 15.0 15.0 14.8 12.0 15.0 5.6 1.6 1.1 1.0 1.4 0.9 0.7 0.9 0.3 6.0 11.5 10.9 14.7 11.1 11.0 14.2 14.8 14.8 13.2 15.0 15.0
15.0 15.0 15.0 15.0 15.0 15.0 15.0 15.0 14.5 15.0 15.0 15.0 15.0 15.0 15.0 15.0 14.1 15.0 15.0 14.7 10.8 15.0 11.3 5.6 6.4 7.7 1.9 1.0 1.9 5.7 8.8 8.7 15.0 15.0 15.0 15.0 15.0 15.0 15.0 15.0 15.0 15.0 15.0 15.0
15.0 15.0 15.0 15.0 15.0 15.0 15.0 15.0 15.0 15.0 15.0 5.4 11.6 11.4 15.0 15.0 15.0 15.0 15.0 15.0 15.0 15.0 15.0 3.5 4.8 3.9 7.0 9.8 14.1 15.0 15.0 15.0 15.0 15.0 15.0 15.0 15.0 15.0 15.0 15.0 15.0 15.0 15.0 15.0
15.0 15.0 15.0 15.0 15.0 15.0 15.0 15.0 15.0 13.4 14.3 13.5 9.5 8.6 10.7 14.2 11.6 15.0 15.0 9.1 14.1 15.0 6.9 12.3 11.3 6.1 8.6 9.0 14.3 15.0 15.0 15.0 15.0 15.0 15.0 15.0 15.0 15.0 15.0 15.0 15.0 15.0 15.0 15.0